Time,TemperatureF,DewpointF,PressureIn,WindDirection,WindDirectionDegrees,WindSpeedMPH,WindSpeedGustMPH,Humidity,HourlyPrecipIn,Conditions,Clouds,dailyrainin,SoftwareType,DateUTC
2013-04-27 00:01:00,44.8,42.6,30.36,SSE,148,0.0,2.0,92,0.00,,,0.00,Wunderground PWS Mod,2013-04-27 04:01:00,
2013-04-27 00:02:00,44.8,42.6,30.36,SSE,148,0.0,2.0,92,0.00,,,0.00,Wunderground PWS Mod,2013-04-27 04:02:00,
2013-04-27 00:03:00,44.8,42.6,30.36,SSE,148,0.0,2.0,92,0.00,,,0.00,Wunderground PWS Mod,2013-04-27 04:03:00,
2013-04-27 00:05:00,44.8,42.9,30.36,SSE,148,0.0,0.0,93,0.00,,,0.00,Wunderground PWS Mod,2013-04-27 04:05:00,
2013-04-27 00:06:00,44.8,42.9,30.36,SSE,148,0.0,0.0,93,0.00,,,0.00,Wunderground PWS Mod,2013-04-27 04:06:00,
2013-04-27 00:11:00,44.9,43.0,30.37,SSE,148,0.0,0.0,93,0.00,,,0.00,Wunderground PWS Mod,2013-04-27 04:11:00,
2013-04-27 00:14:00,45.3,43.7,30.37,ESE,113,0.0,3.0,94,0.00,,,0.00,Wunderground PWS Mod,2013-04-27 04:14:00,
2013-04-27 00:16:00,44.9,43.0,30.36,SSE,148,0.0,0.0,93,0.00,,,0.00,Wunderground PWS Mod,2013-04-27 04:16:00,
2013-04-27 00:21:00,45.0,43.4,30.37,SSE,148,0.0,0.0,94,0.00,,,0.00,Wunderground PWS Mod,2013-04-27 04:21:00,
2013-04-27 00:27:00,45.2,43.6,30.37,ESE,117,0.0,0.0,94,0.00,,,0.00,Wunderground PWS Mod,2013-04-27 04:27:00,
2013-04-27 00:33:00,45.3,43.7,30.37,ESE,117,0.0,0.0,94,0.00,,,0.00,Wunderground PWS Mod,2013-04-27 04:33:00,
2013-04-27 00:38:00,45.4,43.8,30.37,ESE,117,0.0,0.0,94,0.00,,,0.00,Wunderground PWS Mod,2013-04-27 04:38:00,
2013-04-27 00:43:00,45.4,43.8,30.37,ESE,117,0.0,0.0,94,0.00,,,0.00,Wunderground PWS Mod,2013-04-27 04:43:00,
2013-04-27 00:48:00,45.4,43.8,30.37,ESE,117,0.0,0.0,94,0.00,,,0.00,Wunderground PWS Mod,2013-04-27 04:48:00,
2013-04-27 00:53:00,45.4,43.8,30.37,ESE,117,0.0,0.0,94,0.00,,,0.00,Wunderground PWS Mod,2013-04-27 04:53:00,
2013-04-27 00:59:00,45.4,43.8,30.37,ESE,117,0.0,0.0,94,0.00,,,0.00,Wunderground PWS Mod,2013-04-27 04:59:00,
2013-04-27 01:04:00,45.4,43.8,30.37,ESE,117,0.0,0.0,94,0.00,,,0.00,Wunderground PWS Mod,2013-04-27 05:04:00,
2013-04-27 01:10:00,45.4,43.8,30.37,ESE,117,0.0,0.0,94,0.00,,,0.00,Wunderground PWS Mod,2013-04-27 05:10:00,
2013-04-27 01:16:00,45.4,43.8,30.37,ESE,117,0.0,0.0,94,0.00,,,0.00,Wunderground PWS Mod,2013-04-27 05:16:00,
2013-04-27 01:21:00,45.4,43.8,30.37,ESE,117,0.0,0.0,94,0.00,,,0.00,Wunderground PWS Mod,2013-04-27 05:21:00,
2013-04-27 01:27:00,45.4,43.8,30.37,ESE,117,0.0,0.0,94,0.00,,,0.00,Wunderground PWS Mod,2013-04-27 05:27:00,
2013-04-27 01:32:00,45.4,43.8,30.37,ESE,117,0.0,0.0,94,0.00,,,0.00,Wunderground PWS Mod,2013-04-27 05:32:00,
2013-04-27 01:37:00,45.3,43.7,30.37,ESE,117,0.0,0.0,94,0.00,,,0.00,Wunderground PWS Mod,2013-04-27 05:37:00,
2013-04-27 01:42:00,45.2,43.6,30.37,ESE,117,0.0,0.0,94,0.00,,,0.00,Wunderground PWS Mod,2013-04-27 05:42:00,
2013-04-27 01:48:00,45.1,43.5,30.37,ESE,117,0.0,0.0,94,0.00,,,0.00,Wunderground PWS Mod,2013-04-27 05:48:00,
2013-04-27 01:53:00,45.1,43.5,30.37,ESE,117,0.0,0.0,94,0.00,,,0.00,Wunderground PWS Mod,2013-04-27 05:53:00,
2013-04-27 01:58:00,45.0,43.4,30.37,ESE,117,0.0,0.0,94,0.00,,,0.00,Wunderground PWS Mod,2013-04-27 05:58:00,
2013-04-27 02:04:00,44.9,43.3,30.36,ESE,117,0.0,0.0,94,0.00,,,0.00,Wunderground PWS Mod,2013-04-27 06:04:00,
2013-04-27 02:10:00,44.8,43.2,30.36,ESE,117,0.0,0.0,94,0.00,,,0.00,Wunderground PWS Mod,2013-04-27 06:10:00,
2013-04-27 02:16:00,44.7,43.1,30.36,ESE,117,0.0,0.0,94,0.00,,,0.00,Wunderground PWS Mod,2013-04-27 06:16:00,
2013-04-27 02:21:00,44.7,43.1,30.36,East,96,0.0,0.0,94,0.00,,,0.00,Wunderground PWS Mod,2013-04-27 06:21:00,
2013-04-27 02:26:00,44.6,43.0,30.36,East,95,0.0,0.0,94,0.00,,,0.00,Wunderground PWS Mod,2013-04-27 06:26:00,
2013-04-27 02:31:00,44.7,43.1,30.36,East,95,0.0,1.0,94,0.00,,,0.00,Wunderground PWS Mod,2013-04-27 06:31:00,
2013-04-27 02:37:00,44.5,42.9,30.36,NNE,29,0.0,0.0,94,0.00,,,0.00,Wunderground PWS Mod,2013-04-27 06:37:00,
2013-04-27 02:42:00,44.4,42.8,30.36,NNE,29,0.0,0.0,94,0.00,,,0.00,Wunderground PWS Mod,2013-04-27 06:42:00,
2013-04-27 02:47:00,44.3,42.7,30.36,NNE,29,0.0,0.0,94,0.00,,,0.00,Wunderground PWS Mod,2013-04-27 06:47:00,
2013-04-27 02:52:00,44.3,42.7,30.36,East,97,0.0,2.0,94,0.00,,,0.00,Wunderground PWS Mod,2013-04-27 06:52:00,
2013-04-27 02:58:00,44.2,42.6,30.36,East,96,0.0,0.0,94,0.00,,,0.00,Wunderground PWS Mod,2013-04-27 06:58:00,
2013-04-27 03:04:00,44.3,42.7,30.36,East,96,0.0,0.0,94,0.00,,,0.00,Wunderground PWS Mod,2013-04-27 07:04:00,
2013-04-27 03:10:00,44.2,42.6,30.36,NE,40,0.0,0.0,94,0.00,,,0.00,Wunderground PWS Mod,2013-04-27 07:10:00,
2013-04-27 03:15:00,44.2,42.6,30.36,NE,40,0.0,0.0,94,0.00,,,0.00,Wunderground PWS Mod,2013-04-27 07:15:00,
2013-04-27 03:20:00,44.1,42.8,30.36,NE,40,0.0,0.0,95,0.00,,,0.00,Wunderground PWS Mod,2013-04-27 07:20:00,
2013-04-27 03:26:00,44.1,42.8,30.36,NE,40,0.0,0.0,95,0.00,,,0.00,Wunderground PWS Mod,2013-04-27 07:26:00,
2013-04-27 03:31:00,44.1,42.5,30.35,NE,40,0.0,0.0,94,0.00,,,0.00,Wunderground PWS Mod,2013-04-27 07:31:00,
2013-04-27 03:37:00,43.9,42.3,30.35,NE,40,0.0,0.0,94,0.00,,,0.00,Wunderground PWS Mod,2013-04-27 07:37:00,
2013-04-27 03:42:00,43.8,42.2,30.35,NE,40,0.0,0.0,94,0.00,,,0.00,Wunderground PWS Mod,2013-04-27 07:42:00,
2013-04-27 03:47:00,43.7,42.1,30.35,NE,40,0.0,0.0,94,0.00,,,0.00,Wunderground PWS Mod,2013-04-27 07:47:00,
2013-04-27 03:52:00,43.5,41.9,30.35,NE,40,0.0,0.0,94,0.00,,,0.00,Wunderground PWS Mod,2013-04-27 07:52:00,
2013-04-27 03:57:00,43.3,41.7,30.34,NE,40,0.0,0.0,94,0.00,,,0.00,Wunderground PWS Mod,2013-04-27 07:57:00,
2013-04-27 04:03:00,43.1,41.8,30.34,NE,40,0.0,0.0,95,0.00,,,0.00,Wunderground PWS Mod,2013-04-27 08:03:00,
2013-04-27 04:08:00,43.0,41.4,30.34,NE,40,0.0,0.0,94,0.00,,,0.00,Wunderground PWS Mod,2013-04-27 08:08:00,
2013-04-27 04:13:00,42.9,41.6,30.35,NE,40,0.0,0.0,95,0.00,,,0.00,Wunderground PWS Mod,2013-04-27 08:13:00,
2013-04-27 04:14:00,43.1,41.8,30.34,N/A,-737280,0.0,0.0,95,0.00,,,0.00,Wunderground PWS Mod,2013-04-27 08:14:00,
2013-04-27 04:19:00,42.9,41.6,30.34,NE,40,0.0,0.0,95,0.00,,,0.00,Wunderground PWS Mod,2013-04-27 08:19:00,
2013-04-27 04:24:00,42.7,41.4,30.35,NE,40,0.0,0.0,95,0.00,,,0.00,Wunderground PWS Mod,2013-04-27 08:24:00,
2013-04-27 04:30:00,42.5,41.2,30.35,NE,40,0.0,0.0,95,0.00,,,0.00,Wunderground PWS Mod,2013-04-27 08:30:00,
2013-04-27 04:35:00,42.4,41.1,30.35,NE,40,0.0,0.0,95,0.00,,,0.00,Wunderground PWS Mod,2013-04-27 08:35:00,
2013-04-27 04:40:00,42.4,41.1,30.35,NE,40,0.0,0.0,95,0.00,,,0.00,Wunderground PWS Mod,2013-04-27 08:40:00,
2013-04-27 04:45:00,42.4,41.1,30.35,NE,40,0.0,0.0,95,0.00,,,0.00,Wunderground PWS Mod,2013-04-27 08:45:00,
2013-04-27 04:51:00,42.4,41.3,30.35,NE,40,0.0,0.0,96,0.00,,,0.00,Wunderground PWS Mod,2013-04-27 08:51:00,
2013-04-27 04:56:00,42.4,41.3,30.35,NE,40,0.0,0.0,96,0.00,,,0.00,Wunderground PWS Mod,2013-04-27 08:56:00,
2013-04-27 05:01:00,42.3,41.2,30.35,NE,40,0.0,0.0,96,0.00,,,0.00,Wunderground PWS Mod,2013-04-27 09:01:00,
2013-04-27 05:06:00,42.3,41.2,30.35,NE,40,0.0,0.0,96,0.00,,,0.00,Wunderground PWS Mod,2013-04-27 09:06:00,
2013-04-27 05:12:00,42.1,41.0,30.35,NE,40,0.0,0.0,96,0.00,,,0.00,Wunderground PWS Mod,2013-04-27 09:12:00,
2013-04-27 05:17:00,42.0,40.9,30.35,NE,40,0.0,0.0,96,0.00,,,0.00,Wunderground PWS Mod,2013-04-27 09:17:00,
2013-04-27 05:23:00,41.8,40.7,30.35,NE,40,0.0,0.0,96,0.00,,,0.00,Wunderground PWS Mod,2013-04-27 09:23:00,
2013-04-27 05:29:00,41.7,40.4,30.35,NE,40,0.0,0.0,95,0.00,,,0.00,Wunderground PWS Mod,2013-04-27 09:29:00,
2013-04-27 05:35:00,41.8,40.7,30.35,NE,40,0.0,0.0,96,0.00,,,0.00,Wunderground PWS Mod,2013-04-27 09:35:00,
2013-04-27 05:40:00,41.8,40.7,30.35,NE,40,0.0,0.0,96,0.00,,,0.00,Wunderground PWS Mod,2013-04-27 09:40:00,
2013-04-27 05:45:00,41.7,40.6,30.36,NE,40,0.0,0.0,96,0.00,,,0.00,Wunderground PWS Mod,2013-04-27 09:45:00,
2013-04-27 05:50:00,41.7,40.6,30.36,NE,40,0.0,0.0,96,0.00,,,0.00,Wunderground PWS Mod,2013-04-27 09:50:00,
2013-04-27 05:55:00,41.7,40.6,30.35,NE,40,0.0,0.0,96,0.00,,,0.00,Wunderground PWS Mod,2013-04-27 09:55:00,
2013-04-27 06:00:00,41.6,40.5,30.35,NE,40,0.0,0.0,96,0.00,,,0.00,Wunderground PWS Mod,2013-04-27 10:00:00,
2013-04-27 06:06:00,41.4,40.3,30.35,NE,40,0.0,0.0,96,0.00,,,0.00,Wunderground PWS Mod,2013-04-27 10:06:00,
2013-04-27 06:11:00,41.3,40.2,30.35,NE,40,0.0,0.0,96,0.00,,,0.00,Wunderground PWS Mod,2013-04-27 10:11:00,
2013-04-27 06:17:00,41.2,40.1,30.35,NE,40,0.0,0.0,96,0.00,,,0.00,Wunderground PWS Mod,2013-04-27 10:17:00,
2013-04-27 06:23:00,41.1,40.0,30.36,NE,40,0.0,0.0,96,0.00,,,0.00,Wunderground PWS Mod,2013-04-27 10:23:00,
2013-04-27 06:28:00,41.1,40.0,30.36,NE,40,0.0,0.0,96,0.00,,,0.00,Wunderground PWS Mod,2013-04-27 10:28:00,
2013-04-27 06:33:00,41.1,40.0,30.36,NE,40,0.0,0.0,96,0.00,,,0.00,Wunderground PWS Mod,2013-04-27 10:33:00,
2013-04-27 06:38:00,41.1,40.0,30.36,NE,40,0.0,0.0,96,0.00,,,0.00,Wunderground PWS Mod,2013-04-27 10:38:00,
2013-04-27 06:43:00,41.1,40.0,30.36,NE,40,0.0,0.0,96,0.00,,,0.00,Wunderground PWS Mod,2013-04-27 10:43:00,
2013-04-27 06:49:00,41.4,40.3,30.36,NE,40,0.0,0.0,96,0.00,,,0.00,Wunderground PWS Mod,2013-04-27 10:49:00,
2013-04-27 06:54:00,41.4,40.3,30.36,NE,40,0.0,0.0,96,0.00,,,0.00,Wunderground PWS Mod,2013-04-27 10:54:00,
2013-04-27 07:00:00,41.5,40.4,30.36,NE,40,0.0,0.0,96,0.00,,,0.00,Wunderground PWS Mod,2013-04-27 11:00:00,
2013-04-27 07:06:00,41.6,40.5,30.37,NE,38,0.0,0.0,96,0.00,,,0.00,Wunderground PWS Mod,2013-04-27 11:06:00,
2013-04-27 07:11:00,41.7,40.6,30.36,NE,38,0.0,0.0,96,0.00,,,0.00,Wunderground PWS Mod,2013-04-27 11:11:00,
2013-04-27 07:17:00,41.9,40.8,30.36,NE,38,0.0,0.0,96,0.00,,,0.00,Wunderground PWS Mod,2013-04-27 11:17:00,
2013-04-27 07:22:00,42.3,41.2,30.36,NE,38,0.0,0.0,96,0.00,,,0.00,Wunderground PWS Mod,2013-04-27 11:22:00,
2013-04-27 07:28:00,42.7,41.6,30.36,North,10,0.0,0.0,96,0.00,,,0.00,Wunderground PWS Mod,2013-04-27 11:28:00,
2013-04-27 07:33:00,43.1,42.0,30.36,ENE,66,0.0,0.0,96,0.00,,,0.00,Wunderground PWS Mod,2013-04-27 11:33:00,
2013-04-27 07:38:00,43.4,42.1,30.36,ENE,77,0.0,0.0,95,0.00,,,0.00,Wunderground PWS Mod,2013-04-27 11:38:00,
2013-04-27 07:44:00,43.8,41.9,30.36,East,88,0.0,1.0,93,0.00,,,0.00,Wunderground PWS Mod,2013-04-27 11:44:00,
2013-04-27 07:50:00,44.1,42.2,30.36,NE,51,1.0,1.0,93,0.00,,,0.00,Wunderground PWS Mod,2013-04-27 11:50:00,
2013-04-27 07:55:00,44.6,42.4,30.36,NE,55,1.0,1.0,92,0.00,,,0.00,Wunderground PWS Mod,2013-04-27 11:55:00,
2013-04-27 08:01:00,45.1,42.6,30.36,NE,40,1.0,1.0,91,0.00,,,0.00,Wunderground PWS Mod,2013-04-27 12:01:00,
2013-04-27 08:06:00,45.6,42.8,30.36,NE,36,1.0,5.0,90,0.00,,,0.00,Wunderground PWS Mod,2013-04-27 12:06:00,
2013-04-27 08:11:00,46.3,43.2,30.37,NNE,16,0.0,5.0,89,0.00,,,0.00,Wunderground PWS Mod,2013-04-27 12:11:00,
2013-04-27 08:14:00,45.3,42.8,30.36,NE,45,1.0,5.0,91,0.00,,,0.00,Wunderground PWS Mod,2013-04-27 12:14:00,
2013-04-27 08:16:00,46.9,43.5,30.37,ENE,61,0.0,5.0,88,0.00,,,0.00,Wunderground PWS Mod,2013-04-27 12:16:00,
2013-04-27 08:21:00,47.2,43.2,30.37,North,355,1.0,5.0,86,0.00,,,0.00,Wunderground PWS Mod,2013-04-27 12:21:00,
2013-04-27 08:27:00,47.5,43.5,30.37,ESE,102,1.0,5.0,86,0.00,,,0.00,Wunderground PWS Mod,2013-04-27 12:27:00,
2013-04-27 08:33:00,48.0,43.4,30.37,WNW,303,1.0,5.0,84,0.00,,,0.00,Wunderground PWS Mod,2013-04-27 12:33:00,
2013-04-27 08:38:00,48.2,43.6,30.37,NW,326,1.0,5.0,84,0.00,,,0.00,Wunderground PWS Mod,2013-04-27 12:38:00,
2013-04-27 08:43:00,48.9,44.3,30.36,NE,53,1.0,5.0,84,0.00,,,0.00,Wunderground PWS Mod,2013-04-27 12:43:00,
2013-04-27 08:49:00,49.7,44.1,30.36,NNE,30,0.0,5.0,81,0.00,,,0.00,Wunderground PWS Mod,2013-04-27 12:49:00,
2013-04-27 08:54:00,50.1,43.8,30.36,ENE,63,1.0,5.0,79,0.00,,,0.00,Wunderground PWS Mod,2013-04-27 12:54:00,
2013-04-27 09:00:00,50.6,43.7,30.36,NE,55,1.0,5.0,77,0.00,,,0.00,Wunderground PWS Mod,2013-04-27 13:00:00,
2013-04-27 09:05:00,51.1,43.1,30.36,ESE,105,1.0,5.0,74,0.00,,,0.00,Wunderground PWS Mod,2013-04-27 13:05:00,
2013-04-27 09:10:00,51.5,43.1,30.36,NNW,337,1.0,5.0,73,0.00,,,0.00,Wunderground PWS Mod,2013-04-27 13:10:00,
2013-04-27 09:15:00,51.9,43.2,30.36,ESE,115,1.0,5.0,72,0.00,,,0.00,Wunderground PWS Mod,2013-04-27 13:15:00,
2013-04-27 09:20:00,52.3,43.5,30.36,NNE,26,1.0,5.0,72,0.00,,,0.00,Wunderground PWS Mod,2013-04-27 13:20:00,
2013-04-27 09:26:00,53.1,43.2,30.36,North,5,0.0,5.0,69,0.00,,,0.00,Wunderground PWS Mod,2013-04-27 13:26:00,
2013-04-27 09:31:00,53.2,43.3,30.35,NNE,25,0.0,5.0,69,0.00,,,0.00,Wunderground PWS Mod,2013-04-27 13:31:00,
2013-04-27 09:36:00,53.2,43.7,30.36,NNE,24,1.0,5.0,70,0.00,,,0.00,Wunderground PWS Mod,2013-04-27 13:36:00,
2013-04-27 09:42:00,53.5,42.0,30.36,NNW,331,1.0,5.0,65,0.00,,,0.00,Wunderground PWS Mod,2013-04-27 13:42:00,
2013-04-27 09:49:00,53.7,42.2,30.36,WNW,296,1.0,5.0,65,0.00,,,0.00,Wunderground PWS Mod,2013-04-27 13:49:00,
2013-04-27 09:54:00,54.2,42.7,30.36,SW,223,2.0,5.0,65,0.00,,,0.00,Wunderground PWS Mod,2013-04-27 13:54:00,
2013-04-27 10:00:00,55.0,42.2,30.36,NW,306,1.0,5.0,62,0.00,,,0.00,Wunderground PWS Mod,2013-04-27 14:00:00,
2013-04-27 10:05:00,55.4,42.2,30.36,NNE,25,1.0,5.0,61,0.00,,,0.00,Wunderground PWS Mod,2013-04-27 14:05:00,
2013-04-27 10:10:00,56.2,42.1,30.36,South,173,0.0,5.0,59,0.00,,,0.00,Wunderground PWS Mod,2013-04-27 14:10:00,
2013-04-27 10:15:00,56.9,42.3,30.36,SW,221,0.0,5.0,58,0.00,,,0.00,Wunderground PWS Mod,2013-04-27 14:15:00,
2013-04-27 10:20:00,58.0,43.7,30.36,SSE,151,0.0,5.0,59,0.00,,,0.00,Wunderground PWS Mod,2013-04-27 14:20:00,
2013-04-27 10:26:00,58.8,43.6,30.36,ESE,119,0.0,5.0,57,0.00,,,0.00,Wunderground PWS Mod,2013-04-27 14:26:00,
2013-04-27 10:31:00,59.4,44.2,30.36,SSE,166,0.0,5.0,57,0.00,,,0.00,Wunderground PWS Mod,2013-04-27 14:31:00,
2013-04-27 10:37:00,59.6,42.4,30.36,ENE,71,1.0,5.0,53,0.00,,,0.00,Wunderground PWS Mod,2013-04-27 14:37:00,
2013-04-27 10:43:00,59.1,42.0,30.36,ESE,118,1.0,5.0,53,0.00,,,0.00,Wunderground PWS Mod,2013-04-27 14:43:00,
2013-04-27 10:48:00,59.0,42.4,30.36,SSE,163,1.0,5.0,54,0.00,,,0.00,Wunderground PWS Mod,2013-04-27 14:48:00,
2013-04-27 10:53:00,59.6,42.4,30.36,ENE,69,1.0,5.0,53,0.00,,,0.00,Wunderground PWS Mod,2013-04-27 14:53:00,
2013-04-27 10:58:00,59.8,43.6,30.36,SW,227,1.0,5.0,55,0.00,,,0.00,Wunderground PWS Mod,2013-04-27 14:58:00,
2013-04-27 11:03:00,60.5,45.2,30.36,South,183,0.0,5.0,57,0.00,,,0.00,Wunderground PWS Mod,2013-04-27 15:03:00,
2013-04-27 11:09:00,60.5,44.7,30.36,West,262,1.0,5.0,56,0.00,,,0.00,Wunderground PWS Mod,2013-04-27 15:09:00,
2013-04-27 11:15:00,60.2,44.9,30.36,SSW,197,1.0,5.0,57,0.00,,,0.00,Wunderground PWS Mod,2013-04-27 15:15:00,
2013-04-27 11:20:00,60.5,43.3,30.36,ESE,115,1.0,5.0,53,0.00,,,0.00,Wunderground PWS Mod,2013-04-27 15:20:00,
2013-04-27 11:26:00,60.2,44.4,30.36,West,274,1.0,5.0,56,0.00,,,0.00,Wunderground PWS Mod,2013-04-27 15:26:00,
2013-04-27 11:31:00,60.9,45.1,30.35,SW,229,0.0,5.0,56,0.00,,,0.00,Wunderground PWS Mod,2013-04-27 15:31:00,
2013-04-27 11:37:00,61.3,46.4,30.35,WSW,239,0.0,5.0,58,0.00,,,0.00,Wunderground PWS Mod,2013-04-27 15:37:00,
2013-04-27 11:42:00,61.7,46.3,30.35,WSW,254,1.0,5.0,57,0.00,,,0.00,Wunderground PWS Mod,2013-04-27 15:42:00,
2013-04-27 11:48:00,61.8,45.5,30.35,SE,144,0.0,5.0,55,0.00,,,0.00,Wunderground PWS Mod,2013-04-27 15:48:00,
2013-04-27 11:53:00,61.3,46.8,30.35,SW,217,0.0,5.0,59,0.00,,,0.00,Wunderground PWS Mod,2013-04-27 15:53:00,
2013-04-27 11:58:00,61.0,46.6,30.35,WSW,243,1.0,5.0,59,0.00,,,0.00,Wunderground PWS Mod,2013-04-27 15:58:00,
2013-04-27 12:04:00,61.1,46.2,30.34,West,270,0.0,5.0,58,0.00,,,0.00,Wunderground PWS Mod,2013-04-27 16:04:00,
2013-04-27 12:10:00,60.8,46.4,30.34,ESE,123,1.0,5.0,59,0.00,,,0.00,Wunderground PWS Mod,2013-04-27 16:10:00,
2013-04-27 12:14:00,61.1,47.5,30.34,SW,225,1.0,5.0,61,0.00,,,0.00,Wunderground PWS Mod,2013-04-27 16:14:00,
2013-04-27 12:15:00,60.0,45.6,30.34,SSW,195,1.0,5.0,59,0.00,,,0.00,Wunderground PWS Mod,2013-04-27 16:15:00,
2013-04-27 12:20:00,60.0,45.6,30.34,South,188,1.0,5.0,59,0.00,,,0.00,Wunderground PWS Mod,2013-04-27 16:20:00,
2013-04-27 12:26:00,60.1,47.0,30.34,South,175,1.0,5.0,62,0.00,,,0.00,Wunderground PWS Mod,2013-04-27 16:26:00,
2013-04-27 12:32:00,60.3,46.4,30.34,SW,221,1.0,5.0,60,0.00,,,0.00,Wunderground PWS Mod,2013-04-27 16:32:00,
2013-04-27 12:37:00,60.4,46.4,30.34,WNW,287,1.0,5.0,60,0.00,,,0.00,Wunderground PWS Mod,2013-04-27 16:37:00,
2013-04-27 12:42:00,59.7,44.9,30.34,WSW,244,1.0,5.0,58,0.00,,,0.00,Wunderground PWS Mod,2013-04-27 16:42:00,
2013-04-27 12:48:00,59.6,46.1,30.34,South,189,1.0,5.0,61,0.00,,,0.00,Wunderground PWS Mod,2013-04-27 16:48:00,
2013-04-27 12:53:00,59.7,44.4,30.33,South,185,1.0,5.0,57,0.00,,,0.00,Wunderground PWS Mod,2013-04-27 16:53:00,
2013-04-27 12:58:00,59.1,43.9,30.33,SSW,195,1.0,5.0,57,0.00,,,0.00,Wunderground PWS Mod,2013-04-27 16:58:00,
2013-04-27 13:03:00,59.5,42.8,30.33,SSW,194,1.0,5.0,54,0.00,,,0.00,Wunderground PWS Mod,2013-04-27 17:03:00,
2013-04-27 13:09:00,60.3,43.6,30.33,SSW,213,1.0,5.0,54,0.00,,,0.00,Wunderground PWS Mod,2013-04-27 17:09:00,
2013-04-27 13:15:00,60.9,43.1,30.33,SSW,209,0.0,5.0,52,0.00,,,0.00,Wunderground PWS Mod,2013-04-27 17:15:00,
2013-04-27 13:20:00,61.0,42.7,30.32,SE,143,1.0,5.0,51,0.00,,,0.00,Wunderground PWS Mod,2013-04-27 17:20:00,
2013-04-27 13:26:00,60.8,42.5,30.32,SW,220,1.0,5.0,51,0.00,,,0.00,Wunderground PWS Mod,2013-04-27 17:26:00,
2013-04-27 13:31:00,61.0,43.7,30.32,SW,231,1.0,5.0,53,0.00,,,0.00,Wunderground PWS Mod,2013-04-27 17:31:00,
2013-04-27 13:36:00,61.1,42.8,30.32,WNW,289,2.0,5.0,51,0.00,,,0.00,Wunderground PWS Mod,2013-04-27 17:36:00,
2013-04-27 13:41:00,61.3,43.0,30.32,WSW,250,1.0,5.0,51,0.00,,,0.00,Wunderground PWS Mod,2013-04-27 17:41:00,
2013-04-27 13:47:00,61.8,43.0,30.32,NNE,26,1.0,5.0,50,0.00,,,0.00,Wunderground PWS Mod,2013-04-27 17:47:00,
2013-04-27 13:52:00,61.8,41.9,30.32,SW,236,1.0,5.0,48,0.00,,,0.00,Wunderground PWS Mod,2013-04-27 17:52:00,
2013-04-27 13:58:00,61.7,42.3,30.32,WSW,248,1.0,5.0,49,0.00,,,0.00,Wunderground PWS Mod,2013-04-27 17:58:00,
2013-04-27 14:04:00,61.6,40.0,30.32,WSW,254,1.0,5.0,45,0.00,,,0.00,Wunderground PWS Mod,2013-04-27 18:04:00,
2013-04-27 14:10:00,61.6,41.7,30.32,SW,221,1.0,5.0,48,0.00,,,0.00,Wunderground PWS Mod,2013-04-27 18:10:00,
2013-04-27 14:15:00,61.5,41.1,30.32,SE,124,1.0,5.0,47,0.00,,,0.00,Wunderground PWS Mod,2013-04-27 18:15:00,
2013-04-27 14:21:00,61.2,42.4,30.32,SSW,202,1.0,5.0,50,0.00,,,0.00,Wunderground PWS Mod,2013-04-27 18:21:00,
2013-04-27 14:27:00,61.1,42.3,30.32,East,95,1.0,5.0,50,0.00,,,0.00,Wunderground PWS Mod,2013-04-27 18:27:00,
2013-04-27 14:32:00,60.8,41.0,30.32,SW,229,1.0,5.0,48,0.00,,,0.00,Wunderground PWS Mod,2013-04-27 18:32:00,
2013-04-27 14:37:00,60.8,43.1,30.32,SE,133,1.0,5.0,52,0.00,,,0.00,Wunderground PWS Mod,2013-04-27 18:37:00,
2013-04-27 14:42:00,61.3,42.5,30.32,SSW,205,0.0,5.0,50,0.00,,,0.00,Wunderground PWS Mod,2013-04-27 18:42:00,
2013-04-27 14:47:00,61.2,42.9,30.32,SW,219,1.0,5.0,51,0.00,,,0.00,Wunderground PWS Mod,2013-04-27 18:47:00,
2013-04-27 14:52:00,61.0,42.7,30.32,SSW,204,1.0,5.0,51,0.00,,,0.00,Wunderground PWS Mod,2013-04-27 18:52:00,
2013-04-27 14:57:00,61.2,41.9,30.31,WSW,249,0.0,5.0,49,0.00,,,0.00,Wunderground PWS Mod,2013-04-27 18:57:00,
2013-04-27 15:02:00,60.7,41.9,30.31,SW,225,1.0,5.0,50,0.00,,,0.00,Wunderground PWS Mod,2013-04-27 19:02:00,
2013-04-27 15:07:00,60.2,41.0,30.30,ESE,121,1.0,5.0,49,0.00,,,0.00,Wunderground PWS Mod,2013-04-27 19:07:00,
2013-04-27 15:13:00,59.9,42.2,30.30,South,187,1.0,5.0,52,0.00,,,0.00,Wunderground PWS Mod,2013-04-27 19:13:00,
2013-04-27 15:18:00,60.1,41.4,30.30,SW,221,1.0,5.0,50,0.00,,,0.00,Wunderground PWS Mod,2013-04-27 19:18:00,
2013-04-27 15:23:00,60.2,41.0,30.30,SW,218,0.0,5.0,49,0.00,,,0.00,Wunderground PWS Mod,2013-04-27 19:23:00,
2013-04-27 15:28:00,60.2,42.5,30.30,SE,124,1.0,5.0,52,0.00,,,0.00,Wunderground PWS Mod,2013-04-27 19:28:00,
2013-04-27 15:33:00,60.1,42.4,30.30,SW,214,1.0,5.0,52,0.00,,,0.00,Wunderground PWS Mod,2013-04-27 19:33:00,
2013-04-27 15:38:00,60.2,42.5,30.30,ESE,119,1.0,5.0,52,0.00,,,0.00,Wunderground PWS Mod,2013-04-27 19:38:00,
2013-04-27 15:44:00,60.0,43.8,30.29,WSW,242,1.0,5.0,55,0.00,,,0.00,Wunderground PWS Mod,2013-04-27 19:44:00,
2013-04-27 15:50:00,59.9,44.2,30.29,SW,218,1.0,5.0,56,0.00,,,0.00,Wunderground PWS Mod,2013-04-27 19:50:00,
2013-04-27 15:56:00,59.3,43.6,30.29,SE,130,1.0,5.0,56,0.00,,,0.00,Wunderground PWS Mod,2013-04-27 19:56:00,
2013-04-27 16:02:00,59.0,42.8,30.29,SSW,213,1.0,5.0,55,0.00,,,0.00,Wunderground PWS Mod,2013-04-27 20:02:00,
2013-04-27 16:07:00,58.8,43.1,30.29,SSW,196,1.0,5.0,56,0.00,,,0.00,Wunderground PWS Mod,2013-04-27 20:07:00,
2013-04-27 16:12:00,58.7,42.6,30.29,South,181,1.0,5.0,55,0.00,,,0.00,Wunderground PWS Mod,2013-04-27 20:12:00,
2013-04-27 16:14:00,59.0,42.4,30.29,ESE,113,1.0,5.0,54,0.00,,,0.00,Wunderground PWS Mod,2013-04-27 20:14:00,
2013-04-27 16:18:00,58.3,43.1,30.29,SW,229,1.0,5.0,57,0.00,,,0.00,Wunderground PWS Mod,2013-04-27 20:18:00,
2013-04-27 16:23:00,58.1,42.5,30.29,SSW,205,1.0,5.0,56,0.00,,,0.00,Wunderground PWS Mod,2013-04-27 20:23:00,
2013-04-27 16:29:00,58.4,43.2,30.29,SSW,211,1.0,5.0,57,0.00,,,0.00,Wunderground PWS Mod,2013-04-27 20:29:00,
2013-04-27 16:34:00,58.6,43.9,30.29,South,173,1.0,5.0,58,0.00,,,0.00,Wunderground PWS Mod,2013-04-27 20:34:00,
2013-04-27 16:40:00,58.6,44.3,30.28,SSE,163,0.0,5.0,59,0.00,,,0.00,Wunderground PWS Mod,2013-04-27 20:40:00,
2013-04-27 16:45:00,58.4,44.1,30.29,NE,38,1.0,5.0,59,0.00,,,0.00,Wunderground PWS Mod,2013-04-27 20:45:00,
2013-04-27 16:50:00,58.0,44.6,30.29,West,263,1.0,5.0,61,0.00,,,0.00,Wunderground PWS Mod,2013-04-27 20:50:00,
2013-04-27 16:56:00,57.6,44.2,30.29,SE,135,0.0,5.0,61,0.00,,,0.00,Wunderground PWS Mod,2013-04-27 20:56:00,
2013-04-27 17:02:00,57.4,44.1,30.29,SSE,153,1.0,5.0,61,0.00,,,0.00,Wunderground PWS Mod,2013-04-27 21:02:00,
2013-04-27 17:07:00,57.2,44.3,30.29,SW,227,0.0,5.0,62,0.00,,,0.00,Wunderground PWS Mod,2013-04-27 21:07:00,
2013-04-27 17:12:00,57.1,44.6,30.29,ESE,102,0.0,5.0,63,0.00,,,0.00,Wunderground PWS Mod,2013-04-27 21:12:00,
2013-04-27 17:18:00,56.8,44.7,30.29,ESE,119,0.0,5.0,64,0.00,,,0.00,Wunderground PWS Mod,2013-04-27 21:18:00,
2013-04-27 17:23:00,56.1,44.1,30.29,South,171,1.0,5.0,64,0.00,,,0.00,Wunderground PWS Mod,2013-04-27 21:23:00,
2013-04-27 17:28:00,55.7,44.5,30.29,SSE,167,0.0,5.0,66,0.00,,,0.00,Wunderground PWS Mod,2013-04-27 21:28:00,
2013-04-27 17:33:00,55.5,45.1,30.29,SSE,152,0.0,5.0,68,0.00,,,0.00,Wunderground PWS Mod,2013-04-27 21:33:00,
2013-04-27 17:39:00,55.2,44.8,30.29,South,175,1.0,5.0,68,0.00,,,0.00,Wunderground PWS Mod,2013-04-27 21:39:00,
2013-04-27 17:45:00,55.2,45.2,30.29,SSW,194,0.0,5.0,69,0.00,,,0.00,Wunderground PWS Mod,2013-04-27 21:45:00,
2013-04-27 17:50:00,55.3,45.3,30.29,South,171,0.0,5.0,69,0.00,,,0.00,Wunderground PWS Mod,2013-04-27 21:50:00,
2013-04-27 17:55:00,55.5,45.1,30.29,SW,215,0.0,5.0,68,0.00,,,0.00,Wunderground PWS Mod,2013-04-27 21:55:00,
2013-04-27 18:01:00,55.2,44.8,30.29,SSE,152,0.0,5.0,68,0.00,,,0.00,Wunderground PWS Mod,2013-04-27 22:01:00,
2013-04-27 18:07:00,54.7,44.7,30.29,SSW,213,0.0,5.0,69,0.00,,,0.00,Wunderground PWS Mod,2013-04-27 22:07:00,
2013-04-27 18:12:00,54.2,44.2,30.29,SSE,152,1.0,5.0,69,0.00,,,0.00,Wunderground PWS Mod,2013-04-27 22:12:00,
2013-04-27 18:17:00,53.7,44.5,30.29,SW,223,0.0,5.0,71,0.00,,,0.00,Wunderground PWS Mod,2013-04-27 22:17:00,
2013-04-27 18:22:00,53.5,44.7,30.29,SSW,193,0.0,5.0,72,0.00,,,0.00,Wunderground PWS Mod,2013-04-27 22:22:00,
2013-04-27 18:28:00,53.4,45.0,30.29,SSW,199,0.0,5.0,73,0.00,,,0.00,Wunderground PWS Mod,2013-04-27 22:28:00,
2013-04-27 18:33:00,53.1,44.7,30.29,SSW,200,0.0,5.0,73,0.00,,,0.00,Wunderground PWS Mod,2013-04-27 22:33:00,
2013-04-27 18:38:00,52.8,44.7,30.29,SSE,153,0.0,5.0,74,0.00,,,0.00,Wunderground PWS Mod,2013-04-27 22:38:00,
2013-04-27 18:44:00,52.3,44.6,30.29,SSW,204,0.0,5.0,75,0.00,,,0.00,Wunderground PWS Mod,2013-04-27 22:44:00,
2013-04-27 18:50:00,51.8,44.5,30.29,SSW,205,0.0,5.0,76,0.00,,,0.00,Wunderground PWS Mod,2013-04-27 22:50:00,
2013-04-27 18:56:00,51.5,44.5,30.29,South,175,0.0,5.0,77,0.00,,,0.00,Wunderground PWS Mod,2013-04-27 22:56:00,
2013-04-27 19:01:00,51.1,44.5,30.29,SE,132,0.0,5.0,78,0.00,,,0.00,Wunderground PWS Mod,2013-04-27 23:01:00,
2013-04-27 19:06:00,50.7,44.4,30.29,South,170,0.0,5.0,79,0.00,,,0.00,Wunderground PWS Mod,2013-04-27 23:06:00,
2013-04-27 19:12:00,50.4,44.5,30.29,SSE,160,0.0,5.0,80,0.00,,,0.00,Wunderground PWS Mod,2013-04-27 23:12:00,
2013-04-27 19:17:00,50.1,44.2,30.29,SE,128,0.0,5.0,80,0.00,,,0.00,Wunderground PWS Mod,2013-04-27 23:17:00,
2013-04-27 19:22:00,49.7,44.1,30.29,SSE,167,0.0,5.0,81,0.00,,,0.00,Wunderground PWS Mod,2013-04-27 23:22:00,
2013-04-27 19:28:00,49.4,43.8,30.29,SSE,167,0.0,5.0,81,0.00,,,0.00,Wunderground PWS Mod,2013-04-27 23:28:00,
2013-04-27 19:33:00,49.2,43.9,30.29,South,172,0.0,5.0,82,0.00,,,0.00,Wunderground PWS Mod,2013-04-27 23:33:00,
2013-04-27 19:38:00,49.0,43.7,30.28,South,172,0.0,5.0,82,0.00,,,0.00,Wunderground PWS Mod,2013-04-27 23:38:00,
2013-04-27 19:43:00,48.8,43.5,30.28,South,172,0.0,5.0,82,0.00,,,0.00,Wunderground PWS Mod,2013-04-27 23:43:00,
2013-04-27 19:48:00,48.6,43.7,30.29,SSE,167,0.0,5.0,83,0.00,,,0.00,Wunderground PWS Mod,2013-04-27 23:48:00,
2013-04-27 19:54:00,48.3,43.4,30.29,SSE,167,0.0,5.0,83,0.00,,,0.00,Wunderground PWS Mod,2013-04-27 23:54:00,
2013-04-27 20:00:00,48.1,43.2,30.29,SSW,202,0.0,5.0,83,0.00,,,0.00,Wunderground PWS Mod,2013-04-28 00:00:00,
2013-04-27 20:05:00,47.9,43.3,30.29,SSW,198,0.0,2.0,84,0.00,,,0.00,Wunderground PWS Mod,2013-04-28 00:05:00,
2013-04-27 20:11:00,47.7,43.4,30.29,SSW,198,0.0,2.0,85,0.00,,,0.00,Wunderground PWS Mod,2013-04-28 00:11:00,
2013-04-27 20:14:00,48.0,43.4,30.29,SSW,203,0.0,2.0,84,0.00,,,0.00,Wunderground PWS Mod,2013-04-28 00:14:00,
2013-04-27 20:16:00,47.6,43.3,30.29,SSW,198,0.0,2.0,85,0.00,,,0.00,Wunderground PWS Mod,2013-04-28 00:16:00,
2013-04-27 20:21:00,47.5,43.2,30.29,SSW,198,0.0,2.0,85,0.00,,,0.00,Wunderground PWS Mod,2013-04-28 00:21:00,
2013-04-27 20:26:00,47.3,43.3,30.29,SSW,198,0.0,2.0,86,0.00,,,0.00,Wunderground PWS Mod,2013-04-28 00:26:00,
2013-04-27 20:32:00,47.1,43.1,30.29,SSW,198,0.0,2.0,86,0.00,,,0.00,Wunderground PWS Mod,2013-04-28 00:32:00,
2013-04-27 20:37:00,46.9,42.9,30.29,SSW,198,0.0,2.0,86,0.00,,,0.00,Wunderground PWS Mod,2013-04-28 00:37:00,
2013-04-27 20:43:00,46.7,43.0,30.29,SSW,198,0.0,2.0,87,0.00,,,0.00,Wunderground PWS Mod,2013-04-28 00:43:00,
2013-04-27 20:48:00,46.5,42.8,30.30,SSW,198,0.0,2.0,87,0.00,,,0.00,Wunderground PWS Mod,2013-04-28 00:48:00,
2013-04-27 20:53:00,46.4,42.7,30.30,SSW,198,0.0,2.0,87,0.00,,,0.00,Wunderground PWS Mod,2013-04-28 00:53:00,
2013-04-27 20:58:00,46.2,42.8,30.30,SSW,198,0.0,2.0,88,0.00,,,0.00,Wunderground PWS Mod,2013-04-28 00:58:00,
2013-04-27 21:03:00,46.1,43.0,30.30,SSW,198,0.0,2.0,89,0.00,,,0.00,Wunderground PWS Mod,2013-04-28 01:03:00,
2013-04-27 21:08:00,46.0,42.9,30.30,SSW,198,0.0,2.0,89,0.00,,,0.00,Wunderground PWS Mod,2013-04-28 01:08:00,
2013-04-27 21:15:00,45.9,42.8,30.30,SSW,198,0.0,2.0,89,0.00,,,0.00,Wunderground PWS Mod,2013-04-28 01:15:00,
2013-04-27 21:20:00,45.7,42.6,30.30,SSW,198,0.0,2.0,89,0.00,,,0.00,Wunderground PWS Mod,2013-04-28 01:20:00,
2013-04-27 21:26:00,45.4,42.3,30.30,SSW,198,0.0,2.0,89,0.00,,,0.00,Wunderground PWS Mod,2013-04-28 01:26:00,
2013-04-27 21:32:00,45.2,42.2,30.30,SSW,198,0.0,2.0,89,0.00,,,0.00,Wunderground PWS Mod,2013-04-28 01:32:00,
2013-04-27 21:37:00,45.0,42.2,30.30,SSW,198,0.0,2.0,90,0.00,,,0.00,Wunderground PWS Mod,2013-04-28 01:37:00,
2013-04-27 21:43:00,44.9,42.1,30.30,SSW,198,0.0,2.0,90,0.00,,,0.00,Wunderground PWS Mod,2013-04-28 01:43:00,
2013-04-27 21:48:00,44.8,42.0,30.31,SSW,198,0.0,2.0,90,0.00,,,0.00,Wunderground PWS Mod,2013-04-28 01:48:00,
2013-04-27 21:53:00,44.6,42.1,30.31,SSW,198,0.0,2.0,91,0.00,,,0.00,Wunderground PWS Mod,2013-04-28 01:53:00,
2013-04-27 21:59:00,44.5,42.0,30.31,SSW,198,0.0,2.0,91,0.00,,,0.00,Wunderground PWS Mod,2013-04-28 01:59:00,
2013-04-27 22:05:00,44.3,41.8,30.31,SSW,198,0.0,2.0,91,0.00,,,0.00,Wunderground PWS Mod,2013-04-28 02:05:00,
2013-04-27 22:10:00,44.4,42.2,30.30,SSW,198,0.0,2.0,92,0.00,,,0.00,Wunderground PWS Mod,2013-04-28 02:10:00,
2013-04-27 22:15:00,44.4,42.2,30.31,SSW,198,0.0,2.0,92,0.00,,,0.00,Wunderground PWS Mod,2013-04-28 02:15:00,
2013-04-27 22:21:00,44.3,42.1,30.31,SSW,198,0.0,2.0,92,0.00,,,0.00,Wunderground PWS Mod,2013-04-28 02:21:00,
2013-04-27 22:27:00,44.3,42.4,30.31,SSW,198,0.0,2.0,93,0.00,,,0.00,Wunderground PWS Mod,2013-04-28 02:27:00,
2013-04-27 22:32:00,44.3,42.4,30.31,SSW,198,0.0,2.0,93,0.00,,,0.00,Wunderground PWS Mod,2013-04-28 02:32:00,
2013-04-27 22:37:00,44.1,41.9,30.31,SSW,198,0.0,2.0,92,0.00,,,0.00,Wunderground PWS Mod,2013-04-28 02:37:00,
2013-04-27 22:42:00,44.0,41.8,30.31,SSW,198,0.0,2.0,92,0.00,,,0.00,Wunderground PWS Mod,2013-04-28 02:42:00,
2013-04-27 22:47:00,43.8,41.9,30.31,SSW,198,0.0,2.0,93,0.00,,,0.00,Wunderground PWS Mod,2013-04-28 02:47:00,
2013-04-27 22:52:00,43.8,41.9,30.31,SSW,198,0.0,2.0,93,0.00,,,0.00,Wunderground PWS Mod,2013-04-28 02:52:00,
2013-04-27 22:57:00,43.8,42.2,30.30,SSW,198,0.0,2.0,94,0.00,,,0.00,Wunderground PWS Mod,2013-04-28 02:57:00,
2013-04-27 23:02:00,43.8,42.2,30.30,SSW,198,0.0,2.0,94,0.00,,,0.00,Wunderground PWS Mod,2013-04-28 03:02:00,
2013-04-27 23:08:00,43.7,42.1,30.30,SSW,198,0.0,2.0,94,0.00,,,0.00,Wunderground PWS Mod,2013-04-28 03:08:00,
2013-04-27 23:13:00,43.4,41.5,30.30,SSW,198,0.0,2.0,93,0.00,,,0.00,Wunderground PWS Mod,2013-04-28 03:13:00,
2013-04-27 23:18:00,43.2,41.6,30.31,SSW,198,0.0,2.0,94,0.00,,,0.00,Wunderground PWS Mod,2013-04-28 03:18:00,
2013-04-27 23:23:00,43.3,41.7,30.31,SSW,198,0.0,2.0,94,0.00,,,0.00,Wunderground PWS Mod,2013-04-28 03:23:00,
2013-04-27 23:28:00,43.0,41.4,30.31,SSW,198,0.0,2.0,94,0.00,,,0.00,Wunderground PWS Mod,2013-04-28 03:28:00,
2013-04-27 23:33:00,42.9,41.3,30.30,SSW,198,0.0,2.0,94,0.00,,,0.00,Wunderground PWS Mod,2013-04-28 03:33:00,
2013-04-27 23:38:00,43.0,41.4,30.30,SSW,198,0.0,2.0,94,0.00,,,0.00,Wunderground PWS Mod,2013-04-28 03:38:00,
2013-04-27 23:43:00,43.0,41.7,30.30,SSW,198,0.0,2.0,95,0.00,,,0.00,Wunderground PWS Mod,2013-04-28 03:43:00,
2013-04-27 23:49:00,43.1,41.8,30.30,SSW,198,0.0,2.0,95,0.00,,,0.00,Wunderground PWS Mod,2013-04-28 03:49:00,
2013-04-27 23:54:00,43.2,41.9,30.31,SSW,198,0.0,2.0,95,0.00,,,0.00,Wunderground PWS Mod,2013-04-28 03:54:00,